Dayton Wright, OH

10:33 PM EDT on September 23, 2017 (GMT -0400)
Dayton-Wright Brothers

Weather History for KMGY - November, 2012

Change the Weather History Date:

Sunday, November 18, 2012

  Actual Average (KFFO) Record (KFFO)
Temperature  
Mean Temperature 44 °F -  
Max Temperature 57 °F 49 °F 76 °F (2016)
Min Temperature 32 °F 32 °F 10 °F (2014)
Degree Days  
Heating Degree Days 20    
Moisture  
Dew Point 27 °F    
Average Humidity 54    
Maximum Humidity 82    
Minimum Humidity 30    
Precipitation  
Precipitation 0.00 in - - ()
Sea Level Pressure  
Sea Level Pressure 30.43 in    
Wind  
Wind Speed 7 mph (East)    
Max Wind Speed 9 mph    
Max Gust Speed -    
Visibility 10 miles    
Events      
Averages and records for this station are not official NWS values.
T = Trace of Precipitation, MM = Missing Value Source: NWS Daily Summary

Daily Weather History Graph

Daily Weather History Graph

Search for Another Location

Airport or City:

Trip Planner

Search our weather history database for the weather conditions in past years. The results will help you decide how hot, cold, wet, or windy it might be!

Date:

Astronomy

Nov. 18, 2012 Rise Set
Actual Time 7:25 AM EST 5:18 PM EST
Civil Twilight 6:55 AM EST 5:48 PM EST
Nautical Twilight 6:23 AM EST 6:20 PM EST
Astronomical Twilight 5:51 AM EST 6:52 PM EST
Moon 11:51 AM EST (11/18) 10:37 PM EST (11/18)
Length of Visible Light 10h 52m
Length of Day
9h 53m
Waxing Crescent, 30% of the Moon is Illuminated
Nov 18
Waxing Crescent
Nov 20
First Quarter
Nov 28
Full
Dec 6
Last Quarter
Dec 13
New

Hourly Weather History & Observations

Time (EST) Temp. Windchill Dew Point Humidity Pressure Visibility Wind Dir Wind Speed Gust Speed Precip Events Conditions
12:53 AM 37.9 °F 31.5 °F 28.9 °F 70% 30.46 in 10.0 mi ENE 9.2 mph - N/A   Clear
1:53 AM 35.1 °F 29.3 °F 27.0 °F 72% 30.46 in 10.0 mi ENE 6.9 mph - N/A   Clear
2:53 AM 39.0 °F 33.4 °F 28.9 °F 67% 30.45 in 10.0 mi East 8.1 mph - N/A   Clear
3:53 AM 37.9 °F 31.5 °F 28.9 °F 70% 30.45 in 10.0 mi East 9.2 mph - N/A   Clear
4:53 AM 37.9 °F 32.1 °F 28.9 °F 70% 30.45 in 10.0 mi East 8.1 mph - N/A   Clear
5:53 AM 36.0 °F 31.1 °F 27.0 °F 70% 30.46 in 10.0 mi East 5.8 mph - N/A   Clear
6:53 AM 32.0 °F 26.4 °F 25.0 °F 75% 30.47 in 10.0 mi NNE 5.8 mph - N/A   Clear
7:53 AM 32.0 °F 24.8 °F 27.0 °F 82% 30.48 in 10.0 mi ENE 8.1 mph - N/A   Clear
8:53 AM 37.9 °F 33.5 °F 30.0 °F 73% 30.48 in 10.0 mi East 5.8 mph - N/A   Clear
9:53 AM 45.0 °F 41.8 °F 30.0 °F 56% 30.48 in 10.0 mi ESE 5.8 mph - N/A   Clear
10:53 AM 51.1 °F - 27.0 °F 39% 30.47 in 10.0 mi ESE 5.8 mph - N/A   Clear
11:53 AM 52.0 °F - 30.0 °F 43% 30.45 in 10.0 mi Variable 4.6 mph - N/A   Clear
12:53 PM 55.0 °F - 28.9 °F 37% 30.42 in 10.0 mi Calm Calm - N/A   Clear
1:53 PM 57.0 °F - 27.0 °F 32% 30.40 in 10.0 mi SE 5.8 mph - N/A   Clear
2:53 PM 57.9 °F - 26.1 °F 30% 30.39 in 10.0 mi Variable 5.8 mph - N/A   Clear
3:53 PM 57.9 °F - 27.0 °F 31% 30.38 in 10.0 mi East 4.6 mph - N/A   Clear
4:53 PM 55.0 °F - 24.1 °F 30% 30.39 in 10.0 mi East 4.6 mph - N/A   Clear
5:53 PM 51.1 °F - 25.0 °F 36% 30.40 in 10.0 mi East 5.8 mph - N/A   Clear
6:53 PM 48.0 °F - 26.1 °F 42% 30.41 in 10.0 mi East 6.9 mph - N/A   Clear
7:53 PM 46.0 °F 43.1 °F 26.1 °F 46% 30.42 in 10.0 mi East 5.8 mph - N/A   Clear
8:53 PM 46.0 °F 42.5 °F 27.0 °F 47% 30.40 in 10.0 mi East 6.9 mph - N/A   Clear
9:53 PM 43.0 °F 38.8 °F 27.0 °F 53% 30.41 in 10.0 mi East 6.9 mph - N/A   Clear
10:53 PM 39.0 °F 34.0 °F 27.0 °F 62% 30.40 in 10.0 mi East 6.9 mph - N/A   Clear
11:53 PM 39.9 °F 35.8 °F 27.0 °F 60% 30.39 in 10.0 mi East 5.8 mph - N/A   Clear